Regional Weather Roundup
Issued by NWS Little Rock, AR

Home | Current Version | Previous Version | Text Only | Print | Product List | Glossary Off
Versions: 1 2 3 4 5 6 7 8 9 10 11 12 13 14 15 16 17 18 19 20 21 22 23 24 25 26 27

000
ASUS44 KLZK 292305
RWRLZK

WEATHER ROUNDUP FOR ARKANSAS
NATIONAL WEATHER SERVICE LITTLE ROCK AR
600 PM CDT FRI APR 29 2016

NOTE: "FAIR" INDICATES FEW OR NO CLOUDS BELOW 12,000 FEET WITH NO
SIGNIFICANT WEATHER AND/OR OBSTRUCTIONS TO VISIBILITY.

ARZ001-003-010-029-300000-
NORTHWEST ARKANSAS

CITY           SKY/WX    TMP DP  RH WIND       PRES   REMARKS
FAYETTEVILLE   LGT RAIN  65  63  93 E9G18     29.69F
FORT SMITH     CLOUDY    66  61  84 E12       29.68S
HARRISON       CLOUDY    58  57  97 E12       29.79F FOG
BENTONVILLE    CLOUDY    64  55  72 E13G21    29.71F THUNDER
ROGERS         TSTM      61  58  90 E15G23    29.71F
SILOAM SPGS    CLOUDY   N/A N/A N/A SE15G24   29.71R THUNDER
HIGHFILL       TSTM      64  61  90 E13       29.69F
SPRINGDALE     TSTM      64  61  88 MISG      29.74F
$$

ARZ004-005-016-300000-
NORTH CENTRAL ARKANSAS

CITY           SKY/WX    TMP DP  RH WIND       PRES   REMARKS
BATESVILLE     CLOUDY    64  61  88 E8        29.84F
FLIPPIN        CLOUDY   N/A N/A N/A E5        29.79S
MTN HOME       LGT RAIN  59  58  96 E9        29.81F FOG
$$

ARZ040-041-300000-
WEST CENTRAL ARKANSAS

CITY           SKY/WX    TMP DP  RH WIND       PRES   REMARKS
MENA           CLOUDY    70  68  94 SE12G20   29.71F
MOUNT IDA      LGT RAIN  70  67  90 SE6       29.71F FOG
$$

ARZ009-017-025-026-028-300000-
NORTHEAST ARKANSAS

CITY           SKY/WX    TMP DP  RH WIND       PRES   REMARKS
CORNING          N/A     64  63  94 E13       29.87F
JONESBORO      PTSUNNY   65  62  90 E10       29.85F
NEWPORT        CLOUDY    67  65  93 E9        29.85S
WALNUT RIDGE   CLOUDY    64  59  82 E10       29.86S
BLYTHEVILLE    PTSUNNY   66  60  81 SE13G21   29.88F
$$

ARZ022-023-033-042-044-300000-
CENTRAL ARKANSAS

CITY           SKY/WX    TMP DP  RH WIND       PRES   REMARKS
LITTLE ROCK    CLOUDY    70  66  87 E5        29.80S
N LITTLE ROCK    N/A     66  65  96 E6        29.79S
JACKSONVILLE   CLOUDY    67  67  99 E5        29.80S
SEARCY         CLOUDY    66  64  94 E5        29.84S
HOT SPRINGS    TSTM      71  69  93 SE8       29.78R FOG
RUSSELLVILLE   CLOUDY    66  63  90 E10       29.76F
$$

ARZ036-300000-
EAST ARKANSAS

CITY           SKY/WX    TMP DP  RH WIND       PRES   REMARKS
WEST MEMPHIS   CLOUDY    66  64  93 SE14      29.85S
$$

ARZ050-053-066-070-073-300000-
SOUTHWEST ARKANSAS

CITY           SKY/WX    TMP DP  RH WIND       PRES   REMARKS
ARKADELPHIA    TSTM      71  71 100 CALM      29.79R FOG
CAMDEN         CLOUDY    68  64  88 E6        29.76F FOG
TEXARKANA      LGT RAIN  69  68  96 E8G18     29.72S FOG
EL DORADO      CLOUDY    69  67  93 E7        29.77S
DE QUEEN       HVY RAIN  70  69  97 E14G21    29.69S FOG
$$

ARZ056-057-069-300000-
SOUTHEAST ARKANSAS

CITY           SKY/WX    TMP DP  RH WIND       PRES   REMARKS
PINE BLUFF     LGT RAIN  68  66  93 SE16      29.81F
STUTTGART      CLOUDY    66  61  82 SE16G25   29.80R
MONTICELLO     CLOUDY    71  69  93 NE6       29.81S FOG

$$






USA.gov is the U.S. government's official web portal to all federal, state and local government web resources and services.